Flag for U.S.A. Weather past 2 weeks in St. Louis, Missouri, U.S.A.

Now
78 °F

Mostly cloudy.


Feels Like: 80 °F
Forecast: 70 / 85 °F
Wind: 6 mph from West

Location: Lambert-St. Louis International Airport

Current Time: Aug 30, 2015 at 10:05:23 AM

Latest Report: Aug 30, 2015 at 8:51 AM


Visibility: 10 mi

Pressure: 30.03 "Hg

Humidity: 66%

Dew point: 66 °F

Location of St. LouisLocation

Historic Weather in St. Louis — Graph

°F

St. Louis temperature yesterday

Maximum temperature yesterday: 83 °F (at 1:51 PM)
Minimum temperature yesterday: 73 °F (at 3:51 AM)
Average temperature yesterday: 78 °F

Past Weeks' High & Low Weather Summary

 TemperatureHumidityPressure
High91 °F (Aug 16, 3:51 PM)100% (Aug 23, 12:51 AM)30.17 "Hg (Aug 23, 12:51 AM)
Low58 °F (Aug 24, 4:51 AM)30% (Aug 24, 2:51 PM)29.70 "Hg (Aug 18, 2:51 PM)
Average74 °F63%30.00 "Hg
* Reported Aug 15 8:51 AM — Aug 30 8:51 AM, St. Louis, Weather by CustomWeather, © 2015

Note: Actual official high and low records may vary slightly from our data, if they occured in-between our weather recording intervals... More about our weather records

Advertising

St. Louis weather history for previous 24 hours

 ConditionsComfort  
Time TempWeatherWind HumidityBarometerVisibility
8:51 AM
Sun, Aug 30
78 °FMostly cloudy.6 mph66%30.03 "Hg10 mi
7:51 AM75 °FBroken clouds.3 mph74%30.02 "Hg10 mi
7:04 AM73 °FMostly cloudy.No wind78%30.04 "Hg10 mi
6:51 AM73 °FOvercast.3 mph76%30.00 "Hg10 mi
5:51 AM73 °FPassing clouds.No wind76%29.98 "Hg10 mi
4:51 AM73 °FPassing clouds.No wind76%29.97 "Hg10 mi
3:51 AM74 °FPassing clouds.3 mph74%29.97 "Hg10 mi
2:51 AM75 °FPassing clouds.5 mph71%29.97 "Hg10 mi
1:51 AM76 °FMostly cloudy.No wind72%29.99 "Hg10 mi
12:51 AM75 °FMostly cloudy.5 mph89%30.02 "Hg10 mi
11:51 PM
Sat, Aug 29
75 °FPassing clouds.5 mph83%30.01 "Hg10 mi
10:51 PM79 °FPassing clouds.3 mph69%29.99 "Hg10 mi
9:51 PM79 °FMostly cloudy.6 mph69%29.99 "Hg10 mi
8:51 PM80 °FOvercast.6 mph62%29.98 "Hg10 mi
7:51 PM80 °FMostly cloudy.7 mph62%29.97 "Hg10 mi
6:51 PM81 °FBroken clouds.7 mph60%29.96 "Hg10 mi
5:51 PM83 °FBroken clouds.8 mph59%29.96 "Hg10 mi
4:51 PM83 °FBroken clouds.6 mph57%29.96 "Hg10 mi
3:51 PM83 °FBroken clouds.8 mph57%29.96 "Hg10 mi
2:51 PM82 °FBroken clouds.8 mph58%29.98 "Hg10 mi
1:51 PM83 °FBroken clouds.9 mph57%29.99 "Hg10 mi
12:51 PM81 °FMore clouds than sun.8 mph58%30.00 "Hg10 mi
11:51 AM81 °FMostly cloudy.9 mph58%30.00 "Hg10 mi
10:51 AM80 °FOvercast.9 mph58%30.00 "Hg10 mi
Weather by CustomWeather, © 2015

See weather overviewHow to use our weather pages